◎C/2005 W2の軌道と予報位置です



  上尾の門田健一氏から11月22日の観測が報告されました.氏のCCD全光度は,

17.9等でした.なお,彗星は,長周期彗星の1つでしょう.



    C/2005 W2 (Christensen)

T 2006 June 20.48719 TT                                 Nakano

q   3.1890979            (2000.0)            P               Q

                   Peri.  133.34659     -0.31042004     -0.94664821

                   Node   334.35489     +0.80401392     -0.21286807

e   1.0            Incl.   11.54014     +0.50714989     -0.24195939

From 41 observations 2005 Nov. 20-22.

Residuals in seconds of arc 

2005/                     051120 204  0.4+  0.2-    051121 J77  0.5-  0.2+  

051120 703  0.6+  0.1-    051120 J95  0.2+  0.2-    051121 734  1.5+  0.3-  

051120 703  0.8-  0.3+    051120 J95  0.0   0.1+    051121 734  0.1-  0.3-  

051120 703  0.3+  0.1+    051120 204  0.1-  0.7-    051121 651  0.3+  0.2+  

051120 703  1.3+  0.1+    051120 J95  0.1-  0.1-    051121 651  0.0   0.4+  

051120 703  0.5+  1.0+    051120 J95  0.1+  0.3-    051121 651  0.7-  0.3+  

051120 703  0.3-  0.4+    051120 204  0.5+  0.2+    051121 734  0.5-  0.1-  

051120 703  1.1-  0.3-    051120 143  0.3-  0.6-    051121 673  0.5-  0.0   

051120 703  1.4-  0.4-    051120 143  0.5-  0.4-    051121 673  0.3-  0.0   

051120 703  0.4+  0.3-    051120 143  0.4-  0.4-    051121 673  0.1-  0.1+  

051120 703  0.5+  0.1+    051120 143  0.1-  0.5-    051121 673  0.2-  0.3+  

051120 703  0.2+  0.0     051121 J77  0.3-  0.2+    051122 349  0.1+  0.0   

051120 703  0.3-  0.3+    051121 J77  0.2+  0.3+    051122 349  0.0   0.0   

051120 J95  0.3+  0.3-    051121 J77  1.1+  0.8+    051122 349  0.1+  0.0   

 

Date/        TT  R.A.(2000) Decl.     Delta   r     Daily motion  Mag.  Moon Age

              h    h  m       。  ,                      ,  / PA 。  m1      。

2005 Nov. 20 14  03 47.17  +35 52.5   2.811  3.770     7.1 / 263  17.5   49  .80

          21 14  03 46.59  +35 51.7   2.805  3.765     7.1 / 263  17.5   61  .71

          22 14  03 46.01  +35 50.8   2.800  3.760     7.2 / 262  17.5   73  .63

          23 14  03 45.43  +35 49.8   2.795  3.755     7.2 / 261  17.5   85  .53

          24 14  03 44.84  +35 48.6   2.790  3.750     7.2 / 260  17.5   96  .44

          25 14  03 44.26  +35 47.3   2.786  3.745     7.2 / 259  17.5  108  .35

          26 14  03 43.67  +35 46.0   2.781  3.741     7.2 / 258  17.5  120  .26

          27 14  03 43.09  +35 44.5   2.777  3.736     7.2 / 257  17.4  132  .18

          28 14  03 42.51  +35 42.9   2.774  3.731     7.2 / 256  17.4  144  .11

          29 14  03 41.94  +35 41.2   2.770  3.726     7.2 / 256  17.4  156  .05

          30 14  03 41.36  +35 39.4   2.767  3.721     7.2 / 255  17.4  166  .01

     Dec.  1 14  03 40.80  +35 37.5   2.765  3.717     7.1 / 254  17.4  166  .00

           2 14  03 40.24  +35 35.5   2.762  3.712     7.1 / 253  17.4  156  .01

           3 14  03 39.68  +35 33.4   2.760  3.707     7.0 / 252  17.4  143  .05

           4 14  03 39.13  +35 31.2   2.758  3.702     7.0 / 251  17.4  129  .11

           5 14  03 38.59  +35 28.9   2.756  3.698     6.9 / 250  17.4  115  .20

           6 14  03 38.06  +35 26.6   2.755  3.693     6.8 / 249  17.4  101  .30

           7 14  03 37.54  +35 24.1   2.754  3.688     6.8 / 248  17.4   87  .41

           8 14  03 37.02  +35 21.6   2.753  3.684     6.7 / 247  17.4   73  .52

           9 14  03 36.52  +35 19.0   2.753  3.679     6.6 / 246  17.4   59  .63

          10 14  03 36.03  +35 16.4   2.752  3.674     6.5 / 245  17.4   46  .73

          11 14  03 35.55  +35 13.6   2.752  3.670     6.4 / 244  17.3   33  .82

          12 14  03 35.08  +35 10.8   2.753  3.665     6.3 / 243  17.3   21  .90

          13 14  03 34.63  +35 07.9   2.753  3.661     6.1 / 242  17.3   12  .95

          14 14  03 34.19  +35 05.0   2.754  3.656     6.0 / 240  17.3   15  .99

          15 14  03 33.76  +35 02.0   2.755  3.652     5.9 / 239  17.3   25 1.00

          16 14  03 33.35  +34 59.0   2.756  3.647     5.8 / 238  17.3   36  .99

          17 14  03 32.95  +34 55.9   2.758  3.643     5.6 / 236  17.3   48  .96

          18 14  03 32.57  +34 52.8   2.759  3.638     5.5 / 235  17.3   60  .92

          19 14  03 32.21  +34 49.6   2.761  3.634     5.4 / 233  17.3   72  .86

          20 14  03 31.86  +34 46.4   2.764  3.629     5.2 / 231  17.3   84  .79

NAKANO

         **** Don't distribute anyone except personal use only ****

                (C) Copyright 2005 OAA/ComputingSection

write mail from CFAD0::NAKANO on 2005-11-23 04:53:34(JST).



戻ります。